Home   Weather   Hong Kong   Past weeks

Flag for Hong Kong Past Weather in Hong Kong, Hong Kong — Yesterday and Last 2 Weeks

Now
75 °F

Passing clouds.


Feels Like: 78 °F
Forecast: 64 / 71 °F
Wind: 15 mph from Northeast

Location: National Airport

Current Time: Dec 6, 2016 at 12:52:47 am

Latest Report: Dec 6, 2016 at 12:30 am


Visibility: N/A

Pressure: 30.12 "Hg

Humidity: 54%

Dew Point: 57 °F

Location of Hong KongLocation

Past Weather in Hong Kong — Graph

°F

Hong Kong Temperature Yesterday

Maximum temperature yesterday: 81 °F (at 3:30 pm)
Minimum temperature yesterday: 72 °F (at 2:30 am)
Average temperature yesterday: 75 °F

High & Low Weather Summary for the Past Weeks

 TemperatureHumidityPressure
High84 °F (Nov 21, 12:30 pm)94% (Nov 22, 4:30 am)30.27 "Hg (Nov 22, 4:30 am)
Low55 °F (Nov 26, 8:30 pm)44% (Nov 28, 2:30 pm)29.83 "Hg (Nov 21, 3:00 pm)
Average69 °F70%30.08 "Hg
* Reported Nov 21 12:00 am — Dec 6 12:00 am, Hong Kong, Weather by CustomWeather, © 2016

Note: Actual official high and low records may vary slightly from our data, if they occured in-between our weather recording intervals... More about our weather records

Advertising

Hong Kong Weather History for the Previous 24 Hours

Scroll right to see more
 ConditionsComfort  
Time TempWeatherWind HumidityBarometerVisibility
12:00 am
Tue, Dec 6
77 °FPassing clouds.12 mph54%30.12 "HgN/A
11:30 pm
Mon, Dec 5
77 °FPassing clouds.13 mph54%30.12 "HgN/A
11:00 pm77 °FPassing clouds.12 mph57%30.12 "HgN/A
10:30 pm77 °FPassing clouds.7 mph61%30.12 "Hg6 mi
10:00 pm79 °FPassing clouds.6 mph58%30.12 "Hg4 mi
9:30 pm75 °FPassing clouds.5 mph65%30.12 "Hg5 mi
9:00 pm77 °FPassing clouds.5 mph65%30.12 "Hg4 mi
8:30 pm77 °FPassing clouds.3 mph61%30.09 "Hg4 mi
8:00 pm75 °FPassing clouds.5 mph69%30.09 "Hg4 mi
7:30 pm77 °FPassing clouds.1 mph61%30.07 "Hg4 mi
7:00 pm77 °FPassing clouds.2 mph65%30.07 "Hg4 mi
6:30 pm77 °FPassing clouds.3 mph65%30.07 "Hg4 mi
6:00 pm77 °FPassing clouds.3 mph65%30.04 "Hg4 mi
5:30 pm79 °FPassing clouds.5 mph61%30.04 "Hg3 mi
5:00 pm79 °FPassing clouds.3 mph61%30.04 "Hg4 mi
4:30 pm79 °FPassing clouds.3 mph58%30.01 "Hg4 mi
4:00 pm79 °FPassing clouds.3 mph58%30.01 "Hg4 mi
3:30 pm81 °FHaze.5 mph58%30.01 "Hg3 mi
3:00 pm79 °FHaze.6 mph61%30.01 "Hg2 mi
2:30 pm79 °FHaze.6 mph61%30.01 "Hg2 mi
2:00 pm79 °FHaze.6 mph58%30.01 "Hg2 mi
1:30 pm79 °FHaze.7 mph61%30.01 "Hg2 mi
1:00 pm77 °FHaze.9 mph65%30.01 "Hg2 mi
12:30 pm75 °FHaze.13 mph74%30.04 "Hg2 mi
12:00 pm75 °FHaze.9 mph69%30.04 "Hg3 mi
11:30 am75 °FHaze.10 mph74%30.07 "Hg3 mi
11:00 am77 °FHaze.9 mph65%30.07 "Hg3 mi
10:30 am77 °FPassing clouds.7 mph65%30.07 "Hg4 mi
10:00 am77 °FPassing clouds.6 mph65%30.07 "Hg3 mi
9:30 am75 °FPassing clouds.3 mph69%30.07 "Hg3 mi
9:00 am73 °FHaze.5 mph78%30.07 "Hg2 mi
8:30 am73 °FHaze.3 mph78%30.07 "Hg2 mi
8:00 am73 °FHaze.7 mph78%30.07 "Hg2 mi
7:30 am72 °FHaze.8 mph83%30.04 "Hg2 mi
7:00 am72 °FHaze.9 mph83%30.04 "Hg2 mi
6:30 am72 °FPassing clouds.10 mph83%30.04 "Hg3 mi
6:00 am72 °FPassing clouds.10 mph88%30.01 "Hg3 mi
5:30 am72 °FPassing clouds.8 mph88%30.01 "Hg3 mi
5:00 am72 °FPassing clouds.6 mph83%30.01 "Hg3 mi
4:30 am72 °FPassing clouds.6 mph83%30.01 "Hg3 mi
4:00 am72 °FPassing clouds.5 mph83%30.01 "Hg3 mi
3:30 am72 °FPassing clouds.5 mph83%30.01 "Hg3 mi
3:00 am72 °FPassing clouds.5 mph83%30.01 "Hg3 mi
2:30 am72 °FPassing clouds.3 mph83%30.01 "Hg3 mi
2:00 am73 °FPassing clouds.3 mph78%30.01 "Hg3 mi
1:30 am73 °FPassing clouds.3 mph78%30.04 "Hg3 mi
1:00 am73 °FPassing clouds.2 mph78%30.04 "Hg4 mi
12:30 am73 °FPassing clouds.1 mph78%30.04 "Hg4 mi
12:00 am73 °FPassing clouds.2 mph78%30.04 "Hg4 mi
Weather by CustomWeather, © 2016

See weather overviewHow to use our weather pages